Theta_e
304 304 304 304 304 304 304 304 304 304 304 304 304 304 304 304 304 305 304 305 305 305 304 304 304 304 304 303 304 304 302 302 303 305 305 305 304 305 306 308 310 310 312 315 315 310 307 308 309 308 309 309 309 310 310 309 310 311 313 313 311 312 311 312 313 312 313 314 313 311 311 313 315 313 311 324 338 340 344 344 342 342 340 341 341 341 340 340
304 304 303 304 304 304 304 304 304 304 304 304 304 304 304 304 304 304 304 304 305 305 304 305 304 304 304 303 304 302 300 301 304 305 305 304 305 307 309 309 311 314 316 317 315 311 308 308 308 308 308 309 309 310 310 310 310 312 314 312 312 313 312 312 313 312 314 315 314 312 311 313 313 315 311 317 339 345 346 347 342 341 340 339 340 340 340 340
304 304 303 304 304 304 304 304 304 304 304 304 304 304 304 304 304 304 304 304 304 304 304 304 304 304 303 303 304 300 299 303 303 303 306 309 309 309 310 309 311 314 316 316 314 310 308 308 307 307 309 308 308 309 309 311 310 311 312 312 312 312 311 311 312 312 313 314 314 313 310 312 312 313 313 312 330 342 348 349 346 345 341 339 339 339 340 339
304 304 304 304 304 304 304 304 304 304 304 304 304 304 304 304 304 304 304 304 304 304 304 304 304 304 303 304 303 300 300 303 301 304 310 311 309 309 307 307 310 313 315 316 312 308 308 310 309 307 308 308 308 308 309 310 310 310 311 312 312 311 312 310 311 311 312 314 314 313 310 310 311 311 313 312 322 332 337 343 346 346 341 339 338 338 340 339
304 304 304 304 304 304 304 304 304 305 304 304 304 304 304 304 304 304 304 304 304 304 304 304 304 303 303 303 302 300 300 300 303 309 311 309 308 308 306 304 308 313 317 315 310 308 309 310 309 307 308 308 308 308 309 310 310 311 311 311 311 310 312 310 310 311 311 312 312 313 311 310 311 310 313 312 314 318 321 331 340 342 340 339 338 338 339 339
303 303 304 304 304 304 304 304 304 304 304 304 305 305 304 304 304 304 304 304 304 304 303 303 303 303 303 303 302 300 298 297 305 311 310 308 307 305 305 304 305 311 315 313 309 309 309 308 308 308 308 308 309 309 309 309 309 311 311 311 310 310 312 311 311 310 310 311 311 312 310 311 312 310 314 313 316 323 324 330 339 342 341 340 339 338 338 337
303 303 304 304 304 304 304 304 304 304 304 304 305 305 304 304 304 304 304 304 304 304 303 303 303 303 303 303 302 300 299 299 303 307 306 305 304 303 304 304 304 308 311 311 310 308 308 308 308 308 308 308 309 309 308 309 310 311 311 311 311 310 311 311 311 311 310 310 311 310 310 312 311 313 323 328 334 341 340 338 340 342 342 340 339 337 337 337
303 303 303 304 303 304 303 303 303 304 304 304 304 304 304 304 304 304 304 304 304 304 303 303 303 302 303 303 302 301 300 300 299 300 302 302 303 303 304 304 304 305 306 307 308 307 307 309 308 308 308 308 308 308 309 309 309 310 310 312 312 311 311 311 311 311 310 310 310 309 310 312 311 316 328 336 340 344 344 341 341 341 340 339 338 337 337 337
303 303 304 303 303 303 303 303 303 303 303 304 304 304 304 304 304 304 304 304 304 304 303 303 303 302 303 303 302 301 300 300 300 301 302 302 301 301 301 302 303 303 304 305 305 306 307 308 308 307 308 308 307 308 309 309 309 310 310 311 312 312 312 312 312 312 311 310 310 310 311 310 311 315 323 335 341 344 343 342 342 340 339 339 338 338 338 337
303 303 303 303 303 303 303 303 303 303 303 304 304 304 304 304 304 304 303 304 304 304 304 303 303 302 302 303 301 301 300 299 301 302 302 301 299 299 299 299 301 302 304 304 304 306 307 307 308 306 307 308 307 308 308 308 308 309 310 310 311 312 313 312 312 313 312 311 310 311 312 311 310 310 319 336 342 344 343 343 342 340 340 339 338 338 338 338
303 303 303 303 303 303 303 303 303 304 304 304 304 304 304 304 303 303 302 302 303 303 303 303 303 303 302 302 301 301 299 298 299 300 300 300 299 298 298 298 299 301 303 304 304 304 305 306 307 306 307 308 307 307 308 308 308 308 310 310 310 311 312 312 312 312 311 312 311 312 313 312 311 308 317 337 343 344 344 344 342 341 341 339 340 339 338 339
302 303 303 303 302 302 303 303 303 304 304 304 303 303 304 304 303 303 302 302 302 303 303 303 303 303 302 302 301 300 299 299 299 299 299 299 298 299 299 299 298 300 302 302 303 304 305 305 306 307 308 307 307 308 308 308 308 309 310 310 310 310 311 311 312 312 311 312 311 313 314 312 313 309 318 337 343 344 344 344 343 342 342 340 340 339 338 339
303 303 303 302 302 302 303 303 303 303 304 303 303 303 303 303 303 303 302 302 302 302 303 303 303 302 302 302 301 300 300 299 299 299 299 299 299 299 300 300 299 299 299 301 302 303 304 305 305 307 307 307 308 307 307 308 309 309 309 310 311 310 311 311 312 312 312 312 311 312 311 311 315 311 324 342 343 344 345 344 344 343 343 341 341 340 339 340
302 302 303 302 302 302 303 303 303 303 303 303 303 303 303 302 302 302 302 302 302 302 303 303 302 302 302 301 300 300 299 299 300 299 299 299 300 300 301 301 299 298 298 300 302 302 304 305 305 306 307 307 308 307 308 308 309 310 309 309 310 311 311 310 311 311 312 312 310 313 309 310 315 311 326 344 344 344 345 344 344 344 344 342 342 341 340 340
302 303 303 302 302 302 303 302 302 303 303 303 303 303 303 302 301 300 300 301 302 302 302 302 302 302 301 300 300 299 299 299 300 299 299 300 300 301 302 302 301 299 299 300 302 304 304 305 306 307 307 307 307 308 309 309 309 309 309 309 309 310 310 310 311 311 312 312 310 313 310 311 315 309 325 343 344 345 345 344 345 344 344 343 343 342 341 341
302 302 302 302 302 302 302 301 301 302 302 303 303 302 302 301 300 299 300 301 301 301 302 302 301 301 300 300 299 298 299 300 300 299 299 300 300 301 302 303 303 303 302 302 303 305 305 305 306 306 307 307 307 308 309 310 309 309 309 310 309 309 309 309 311 311 312 312 310 312 312 313 313 311 327 342 344 345 344 344 345 345 345 343 343 342 342 341
302 302 302 302 302 301 302 302 302 302 302 302 302 302 301 300 299 299 300 301 299 300 302 301 301 301 300 299 297 297 298 299 298 298 299 299 300 300 301 302 304 305 304 304 304 305 305 305 305 306 307 307 307 308 310 311 311 309 309 310 309 308 309 308 310 311 311 312 311 313 313 313 314 317 332 342 343 344 344 344 345 344 344 343 343 342 342 341
302 302 302 302 302 302 302 302 302 302 301 302 302 301 300 299 298 299 300 300 299 299 301 301 300 299 299 299 299 299 299 299 298 299 299 299 299 300 301 302 304 305 305 305 305 305 305 305 305 306 307 307 307 308 310 310 311 311 309 309 309 309 308 308 309 310 311 312 311 313 313 314 318 324 336 341 342 344 343 343 344 343 343 343 343 342 341 341
302 301 302 302 302 301 301 301 301 301 301 302 302 300 299 298 298 299 300 299 299 299 299 300 299 298 297 298 299 298 298 299 299 299 299 300 301 301 302 303 303 305 305 305 306 305 305 306 306 307 307 308 307 308 309 308 310 311 309 308 309 309 308 308 309 310 312 312 311 312 313 314 319 329 338 340 341 343 342 343 344 343 343 343 342 342 341 340
301 301 301 301 301 301 301 301 301 301 301 301 301 299 298 298 298 299 300 299 299 298 297 298 298 298 297 297 297 298 298 299 299 299 299 301 303 302 302 304 303 304 306 306 306 305 305 306 307 307 307 307 306 307 308 307 309 310 309 308 308 309 309 308 309 309 311 313 312 312 313 313 317 328 337 339 341 344 344 344 344 344 344 343 343 342 341 340
301 301 301 301 301 301 301 301 301 300 300 301 300 299 298 298 298 299 299 299 299 299 297 297 298 298 298 298 298 298 298 299 299 299 299 300 300 300 302 304 305 306 306 305 306 305 305 307 308 307 306 306 306 306 307 307 308 309 309 309 308 308 309 309 309 309 310 313 312 312 312 313 314 324 336 339 340 343 343 344 344 344 343 343 343 341 340 340
300 300 300 300 300 301 301 301 301 300 300 300 299 298 298 298 299 299 299 299 299 299 298 298 298 298 298 299 299 299 298 299 299 299 299 299 299 298 302 305 305 306 305 305 306 306 307 308 307 306 305 305 305 305 307 307 308 309 309 309 308 308 308 309 309 308 309 311 312 312 311 312 318 325 334 339 339 340 341 342 343 343 344 343 343 341 340 340
300 300 300 300 300 301 301 301 300 300 300 300 299 298 298 298 299 299 299 300 299 299 298 298 298 298 298 299 299 298 298 299 299 299 299 299 299 299 303 306 305 306 305 305 307 307 308 307 306 306 305 305 305 305 306 307 308 309 308 309 309 308 308 308 309 308 309 312 311 311 311 316 325 329 334 338 338 340 341 342 342 343 343 343 342 340 340 341
300 300 300 300 300 301 300 300 300 299 299 299 299 299 299 299 299 299 300 299 299 298 298 298 298 298 298 298 299 298 298 299 299 299 300 300 299 300 304 306 305 306 306 306 307 307 307 307 306 306 305 305 306 305 306 307 308 309 308 309 309 308 308 308 309 308 309 313 311 311 312 316 326 331 334 336 338 340 341 343 344 343 342 342 341 341 340 340
300 299 300 300 300 301 300 300 300 299 299 300 300 299 299 299 300 299 299 299 299 298 298 298 298 298 299 298 299 299 299 299 299 299 300 300 300 301 304 305 305 306 306 306 306 307 306 305 306 307 305 305 306 305 306 307 309 310 308 309 308 308 308 308 309 309 310 312 312 312 312 316 328 332 332 336 338 339 341 343 344 343 342 342 341 341 341 340
299 299 300 300 300 300 300 300 300 300 300 300 300 299 299 300 300 299 298 299 300 299 298 298 298 299 299 299 298 298 299 299 299 299 300 301 302 303 304 305 305 306 306 305 306 306 305 305 305 307 306 305 306 306 306 306 309 310 310 308 307 307 308 308 309 310 311 311 313 313 310 317 329 330 331 335 337 338 340 342 343 342 342 341 340 340 340 340
299 300 300 300 300 300 300 300 300 300 300 300 299 300 300 300 300 299 298 299 301 300 299 298 298 298 298 299 298 298 298 298 299 299 299 300 302 303 304 305 305 305 305 306 307 307 306 305 306 307 307 306 306 306 306 306 308 310 309 308 307 307 308 309 309 309 310 311 313 314 311 314 320 325 330 334 335 337 339 340 341 341 341 340 340 340 339 340
299 300 300 300 300 300 300 300 300 300 300 300 299 300 300 300 299 298 298 300 301 301 301 300 299 299 299 299 299 298 298 298 299 300 300 300 301 302 304 305 305 305 305 306 308 307 306 306 306 307 307 307 306 307 306 306 308 310 308 307 308 308 308 308 308 309 311 310 312 315 314 311 313 323 332 333 334 336 336 337 338 338 339 339 339 339 338 339
299 299 299 299 299 300 300 300 300 300 300 300 299 300 300 299 299 298 298 300 302 302 302 302 301 301 299 298 299 298 298 298 299 300 299 300 301 301 303 305 305 305 305 306 307 306 306 306 306 306 307 307 307 307 306 306 307 308 306 307 308 308 308 309 309 310 311 311 312 316 316 310 311 324 334 334 334 335 335 335 335 335 336 337 337 338 337 338
299 299 299 299 300 300 300 300 300 300 300 300 300 300 300 299 298 299 300 300 302 302 302 302 302 302 301 299 300 299 299 299 299 299 300 300 300 301 302 304 304 305 305 305 306 305 305 306 306 306 307 308 307 306 307 307 307 307 307 308 308 308 309 310 310 310 311 312 312 315 317 311 309 320 332 336 334 334 335 335 335 335 334 335 336 337 337 337
299 299 299 299 300 300 300 300 300 300 300 300 300 300 300 299 298 300 301 301 302 302 302 302 302 302 302 302 301 300 299 299 299 300 300 300 301 301 302 304 304 306 306 306 307 305 305 306 306 306 307 308 307 306 307 307 306 307 308 309 310 309 309 310 311 310 312 313 311 313 317 313 310 315 326 333 333 332 334 336 336 336 335 335 335 335 336 336
298 299 299 299 300 300 300 300 300 300 300 300 300 299 300 301 300 300 301 302 303 303 303 304 303 303 303 303 303 301 300 300 300 300 300 301 302 302 303 305 305 307 308 307 307 307 306 306 305 306 307 308 308 307 307 307 307 307 308 310 311 310 310 311 311 311 312 312 309 312 317 315 312 314 321 329 332 333 333 333 335 335 335 335 334 334 335 335
298 299 300 300 300 300 300 300 300 300 300 300 300 299 300 302 302 301 301 302 303 303 303 304 304 303 303 303 303 301 300 301 300 301 301 300 302 303 303 304 304 305 307 308 308 308 307 305 305 306 307 308 308 308 307 308 307 307 308 310 311 311 311 312 311 310 312 311 309 313 319 318 315 316 320 325 330 333 332 332 333 333 335 335 334 333 334 335
298 300 301 302 301 301 301 300 300 301 301 301 300 300 302 303 303 302 302 303 303 303 304 304 304 304 303 303 303 301 301 302 301 301 301 301 302 303 303 303 303 303 306 308 308 308 308 307 306 306 307 308 309 308 308 308 308 308 308 310 311 311 312 311 310 311 312 313 311 314 318 316 314 316 321 324 326 330 332 332 333 333 333 335 334 333 334 335
300 301 302 302 303 303 302 301 301 301 301 301 301 302 303 303 303 304 304 304 304 304 304 304 304 304 304 303 301 301 302 302 302 301 302 302 302 304 304 304 303 303 305 307 307 308 308 307 305 306 307 308 309 308 307 308 309 308 307 308 310 311 312 312 311 312 314 313 314 318 318 316 315 317 323 327 326 326 329 331 333 333 334 334 334 334 335 335
300 301 302 302 302 303 303 302 301 301 301 301 302 303 303 303 303 304 305 305 305 305 305 305 304 304 304 303 301 302 303 303 303 304 303 303 302 303 304 304 304 303 304 307 307 307 308 307 305 305 306 307 309 309 307 308 309 308 307 308 309 309 311 313 311 312 313 312 314 318 317 316 315 317 326 330 328 327 328 331 333 334 335 335 335 335 335 335
299 300 302 302 302 303 303 302 302 302 301 301 303 303 303 303 303 304 305 305 305 304 305 306 304 303 304 303 303 304 304 303 304 304 304 304 303 304 304 304 304 304 304 305 306 306 307 307 305 305 306 307 309 309 307 307 307 307 308 308 308 308 310 313 312 311 312 311 313 315 315 316 312 316 330 334 332 332 331 331 335 335 335 336 336 336 336 336
298 299 301 302 302 303 303 302 302 302 302 302 303 304 305 305 304 304 304 304 304 305 306 306 305 303 303 304 305 304 303 304 304 304 304 305 305 304 304 305 304 304 304 304 305 306 307 307 306 306 307 307 308 309 308 307 305 307 308 308 309 310 310 312 312 312 312 312 314 314 314 316 312 316 331 334 333 337 335 334 336 336 336 336 336 336 336 336
298 300 302 302 302 303 303 302 302 302 303 303 304 305 306 305 305 305 305 305 305 305 305 306 306 305 304 305 306 304 303 304 304 304 305 305 306 305 305 305 304 304 304 304 305 306 307 307 307 306 306 307 308 309 310 308 305 306 307 306 308 310 311 311 312 312 312 312 313 314 314 315 313 318 329 332 333 337 337 336 337 336 336 337 336 337 336 336
299 302 303 301 302 303 303 303 303 303 303 303 304 305 305 305 305 305 306 306 306 306 305 305 306 307 305 306 307 305 305 305 304 305 305 305 306 306 305 305 305 304 304 304 304 306 307 308 308 306 305 307 309 309 310 309 306 306 307 308 308 309 309 311 311 310 311 312 312 314 314 313 315 322 326 328 334 337 336 337 337 337 337 337 336 337 336 337
299 302 303 300 301 303 302 302 303 303 303 304 304 305 304 305 305 306 306 306 306 307 306 305 306 308 306 305 307 307 306 306 305 305 305 305 306 306 305 305 305 304 304 304 304 306 307 308 309 307 306 307 308 309 309 309 307 307 308 307 308 309 310 310 311 310 310 311 312 313 313 312 318 327 325 325 332 335 336 337 337 337 337 337 337 337 336 337
300 302 302 300 300 302 302 302 302 303 304 304 304 304 304 305 305 306 307 307 306 307 306 306 307 308 306 303 304 305 306 308 307 305 305 305 305 306 305 305 305 304 304 305 305 307 309 310 309 308 307 307 307 308 309 308 306 307 307 307 308 311 311 310 311 312 311 311 312 313 312 312 320 325 324 325 328 331 335 336 337 336 336 337 337 336 336 337
299 301 301 300 300 301 302 303 303 303 303 303 303 304 304 304 306 307 307 308 308 307 307 307 307 307 306 304 304 305 306 308 308 307 307 306 305 305 305 305 305 304 305 306 306 308 310 309 308 308 307 306 305 306 308 307 306 307 307 307 308 309 311 312 313 314 313 311 311 312 311 312 320 323 325 327 328 331 335 335 336 336 336 337 336 336 336 337
298 299 300 300 300 301 302 303 303 303 303 303 303 303 304 305 306 307 307 308 310 308 307 308 306 305 306 306 306 308 308 309 308 309 309 307 307 306 304 305 305 304 306 307 308 309 309 309 309 308 308 308 307 307 308 307 307 308 308 307 307 309 312 314 314 313 312 312 312 311 310 313 320 327 331 332 331 333 335 334 335 336 336 337 337 336 337 337
299 299 300 300 300 301 301 301 302 303 303 303 303 304 306 306 307 307 307 308 309 309 308 308 306 306 307 306 306 307 308 309 309 310 311 312 311 307 303 304 305 305 306 307 308 308 309 311 311 309 310 310 309 309 309 308 308 309 308 307 307 309 311 314 315 311 311 313 312 310 310 313 322 331 334 335 334 335 335 335 336 336 337 337 337 337 337 338
300 301 301 300 300 300 301 300 301 302 303 304 304 305 306 307 306 306 307 308 309 308 309 308 308 308 307 308 309 309 310 311 310 311 314 315 315 310 304 304 305 305 306 309 310 311 311 312 312 310 310 310 309 309 308 308 309 309 308 307 306 308 313 316 315 311 312 315 312 313 317 316 321 335 336 335 336 336 336 336 336 337 337 337 337 337 338 338
300 301 301 301 301 301 301 301 301 302 303 303 304 305 306 306 306 306 307 308 308 307 308 309 310 310 308 309 313 313 311 311 311 313 315 315 315 311 306 304 305 306 308 309 311 313 311 310 312 312 311 309 308 308 307 307 309 308 308 308 306 308 313 316 316 315 317 314 310 319 328 319 316 331 336 336 337 336 336 337 337 337 337 337 337 338 339 339
299 299 299 300 301 302 302 302 301 301 302 303 305 306 306 306 306 306 306 307 307 307 310 311 310 311 309 309 312 313 311 311 312 313 314 314 313 308 305 305 306 307 310 308 310 314 311 308 312 313 311 309 308 308 308 308 308 308 309 310 309 309 312 314 317 320 319 313 312 323 330 322 319 330 332 333 336 335 336 337 337 338 337 336 337 338 340 340
298 299 298 299 299 300 300 300 301 301 302 304 306 306 306 306 306 306 305 306 307 308 310 312 311 311 311 310 311 311 310 311 314 313 313 314 314 309 307 308 308 308 310 308 310 314 312 310 313 312 311 311 309 307 309 308 308 308 309 310 310 311 312 313 316 320 321 319 322 327 329 326 325 327 328 331 333 334 336 337 337 338 337 336 336 338 340 340
298 298 298 298 298 299 299 300 301 301 302 304 306 306 305 305 306 305 304 305 307 308 310 311 311 311 312 311 311 311 309 310 313 313 312 313 316 315 313 313 313 313 313 312 312 312 310 311 315 314 311 312 310 308 309 308 308 309 308 309 309 311 312 312 314 319 318 318 326 333 334 331 327 325 327 330 332 334 336 338 338 338 337 336 336 337 339 339
297 297 298 298 299 300 300 300 300 301 303 304 305 305 304 304 305 305 305 305 307 308 309 310 310 311 312 311 311 312 310 309 311 312 311 312 314 314 314 314 315 315 317 316 313 310 309 311 314 313 311 312 312 310 309 310 310 310 310 310 310 311 313 313 315 318 315 316 328 333 328 326 328 327 329 331 333 335 336 338 339 338 337 336 337 337 338 338
296 297 297 298 300 300 300 300 300 303 305 304 303 303 303 304 304 304 306 306 307 308 309 308 309 311 313 312 311 312 311 310 311 311 311 311 311 311 312 313 313 313 316 317 313 311 311 311 312 313 311 312 313 312 312 312 311 310 312 312 312 313 315 314 315 320 320 319 322 321 317 324 328 329 332 334 335 336 336 337 338 338 338 336 336 337 337 336
Wind_Speed
16 16 17 17 17 17 17 17 17 17 17 17 18 17 17 17 17 17 17 17 17 17 17 17 18 18 18 19 20 21 24 26 26 20 16 22 24 19 15 13 14 16 14 14 13 11 8 6 5 5 6 4 3 3 5 3 3 4 4 7 9 8 8 9 11 8 6 7 8 7 8 11 9 4 4 3 4 5 4 4 2 3 5 2 3 14 23 23
17 17 17 17 17 17 17 17 17 17 17 17 18 17 18 17 17 17 17 17 17 17 17 17 17 18 19 20 20 22 24 25 22 19 22 21 15 10 10 12 16 16 13 14 13 8 6 4 5 8 6 4 3 4 6 4 4 7 4 7 9 6 7 9 12 9 7 8 8 8 10 12 10 6 6 5 5 6 4 2 0 1 3 4 10 18 22 23
17 17 17 17 17 17 17 18 18 18 17 17 18 18 18 17 17 17 17 17 17 17 17 17 17 17 18 19 20 23 23 21 16 14 11 7 5 4 9 13 15 13 13 17 15 11 9 3 4 8 6 5 3 4 7 5 5 5 3 8 7 4 6 7 11 10 6 7 8 7 7 9 7 4 5 5 6 7 4 4 4 5 6 8 13 18 21 24
17 17 17 17 17 17 17 18 18 17 18 18 18 18 18 17 17 17 17 17 17 17 17 17 17 16 17 18 20 24 20 14 8 1 8 14 10 10 12 14 15 10 11 17 14 11 10 5 3 6 6 6 3 4 7 7 5 4 5 7 3 5 6 6 8 9 6 5 7 5 5 7 5 3 5 6 6 6 6 8 9 9 12 14 14 18 22 23
17 17 17 17 17 17 17 17 18 17 17 18 17 18 17 17 17 17 17 16 17 16 17 17 16 16 16 16 19 20 13 7 1 11 9 15 13 14 17 16 16 12 5 14 10 8 9 5 4 5 5 5 6 5 7 8 4 4 6 2 4 5 7 6 5 7 5 3 3 4 6 6 5 3 4 8 9 5 3 8 11 11 15 18 18 19 20 21
17 17 17 17 16 16 16 16 17 17 17 18 17 17 17 17 17 17 16 17 16 16 16 16 15 16 15 16 17 14 5 4 2 11 2 15 17 17 19 16 14 12 1 10 7 5 7 6 6 7 6 5 10 9 6 9 7 5 5 2 3 4 5 5 5 5 4 5 5 4 4 3 6 4 2 6 7 3 2 5 8 10 15 19 19 20 20 21
17 17 17 17 17 17 17 17 17 17 18 18 18 17 17 18 18 17 17 17 16 16 15 14 14 15 15 15 13 6 2 7 8 10 9 17 19 18 16 13 12 10 4 3 4 6 6 8 8 6 7 6 9 10 5 8 10 8 5 4 4 4 5 3 2 4 4 6 4 2 2 4 6 5 3 4 4 5 6 5 4 9 15 17 18 19 19 21
17 17 17 17 18 18 18 18 18 18 19 19 19 18 18 18 18 18 18 17 17 16 15 14 14 13 12 12 9 5 6 13 18 14 14 17 15 15 14 11 11 12 8 4 3 4 5 9 9 5 7 6 5 9 8 7 10 12 7 4 4 5 6 4 1 2 3 3 1 1 3 4 4 2 4 4 3 6 6 2 7 11 14 16 17 19 18 19
18 18 17 18 18 18 19 19 19 19 19 19 19 19 19 18 18 18 19 18 17 16 16 15 13 11 11 8 6 6 7 7 9 9 6 7 13 16 15 13 13 13 8 6 7 3 5 8 9 5 5 5 6 9 10 9 8 10 9 6 5 5 7 6 5 3 2 1 2 3 4 4 3 2 3 3 3 4 2 5 10 12 15 16 16 18 18 18
18 18 18 19 19 19 19 20 20 20 20 20 19 19 19 18 18 18 20 20 17 17 16 15 13 11 10 5 4 7 6 4 4 5 5 12 24 25 19 17 14 11 8 8 7 3 2 3 3 1 2 3 6 5 8 9 4 6 11 9 8 7 5 4 6 7 3 2 4 4 5 5 3 4 5 3 3 4 5 7 10 12 15 16 15 16 17 17
18 19 19 19 19 20 20 20 20 20 19 19 20 20 19 18 19 19 20 20 20 19 16 15 13 10 9 5 7 8 3 5 10 11 16 25 32 29 23 20 16 8 6 8 7 5 6 4 3 2 2 3 6 4 6 7 1 4 10 11 11 10 7 4 4 5 4 4 7 6 6 5 3 5 6 6 7 8 9 10 12 13 13 15 15 15 15 15
19 19 19 20 20 20 20 20 20 20 20 20 20 20 19 19 20 20 21 21 21 20 17 15 12 10 10 8 12 18 14 15 20 23 27 31 31 28 23 19 17 12 6 6 9 7 5 4 3 3 2 1 6 5 4 5 3 3 6 7 10 11 12 12 8 5 5 6 7 7 7 9 7 6 6 9 11 11 11 11 12 14 12 13 14 13 13 14
19 19 20 20 20 20 20 20 20 21 21 21 21 21 20 20 21 22 22 22 21 20 17 15 12 10 9 8 12 21 24 23 25 28 29 26 25 23 19 16 17 17 11 9 10 7 4 3 2 3 2 1 4 1 3 4 6 5 5 5 6 8 11 15 12 7 8 5 6 10 8 10 11 8 7 10 12 12 11 10 11 12 12 12 12 12 13 15
20 20 21 21 21 21 21 21 22 22 22 22 23 22 22 23 25 25 24 24 22 20 17 14 11 8 7 10 13 20 24 23 26 28 22 18 19 19 16 13 14 16 13 13 12 10 8 5 2 3 2 3 2 5 3 4 7 7 6 5 6 6 5 11 14 11 10 5 6 11 10 7 8 8 9 11 14 15 13 12 12 12 12 12 12 13 14 15
21 21 22 22 22 22 22 23 23 23 24 23 23 24 23 25 28 27 25 24 21 18 15 11 9 6 7 11 14 17 16 14 20 21 14 14 16 13 10 6 8 12 12 14 11 5 5 4 2 3 2 3 3 3 2 4 6 8 7 7 8 7 3 7 13 16 15 6 7 12 8 6 6 7 10 12 15 16 14 13 13 13 14 13 13 14 13 13
22 22 22 22 22 23 24 24 24 24 25 24 24 25 25 28 29 25 22 20 18 14 11 8 8 8 6 8 8 10 8 9 14 14 10 11 12 11 9 7 5 7 9 10 9 3 4 5 3 3 2 3 4 3 4 5 5 8 9 7 9 11 5 5 8 14 18 9 8 13 6 2 4 6 10 13 16 16 14 14 15 15 14 14 13 13 13 12
22 23 22 22 23 24 24 23 24 25 25 26 25 26 28 29 23 16 13 11 9 6 10 5 6 8 6 6 7 7 6 8 11 10 10 12 14 15 10 6 4 5 7 5 7 6 5 5 4 3 3 4 4 5 7 8 8 9 9 5 6 12 9 6 4 8 18 15 12 14 9 5 2 4 11 15 17 17 14 14 16 15 14 14 12 13 14 13
22 23 23 23 23 23 23 24 25 25 26 27 25 27 29 23 13 7 2 2 4 6 7 4 5 4 6 7 8 6 3 4 6 9 13 14 13 13 11 6 4 4 8 5 6 7 5 5 5 4 5 6 6 9 9 7 7 9 10 6 5 10 11 10 6 6 17 19 16 15 13 12 4 4 10 14 17 18 16 15 15 15 15 14 13 14 14 14
24 25 24 24 24 25 26 25 25 25 27 26 26 27 20 10 5 3 5 5 4 3 3 4 7 4 4 4 6 6 5 6 8 12 13 9 5 5 8 7 4 5 8 7 7 8 6 5 6 7 8 11 10 12 7 2 4 11 10 9 8 10 11 13 8 7 16 17 16 16 14 16 10 6 10 12 14 16 16 15 12 13 14 12 13 13 13 15
26 26 26 25 25 26 27 26 26 26 26 26 25 20 8 3 3 1 3 5 7 8 9 8 11 11 9 6 5 4 7 8 8 10 8 2 2 2 3 5 4 5 8 9 9 8 7 6 8 9 9 11 10 12 7 6 3 12 11 10 10 9 9 12 10 8 13 13 13 15 14 17 13 9 11 12 14 15 15 15 13 14 13 11 14 14 15 16
27 28 27 26 26 26 27 27 26 25 26 25 19 9 2 3 4 3 4 8 13 14 15 14 15 16 14 13 9 2 6 8 8 10 10 6 3 4 3 7 6 6 7 9 9 7 8 9 10 8 5 9 9 11 11 3 1 10 12 10 9 9 8 10 12 8 10 10 9 13 15 18 15 10 11 12 14 15 16 17 16 16 14 12 15 17 16 12
27 27 28 28 26 26 27 26 26 27 26 18 8 1 2 4 5 5 6 9 12 13 17 17 17 17 16 19 16 4 4 9 10 12 13 9 6 5 5 7 8 7 7 10 8 7 10 9 8 8 5 9 11 11 14 9 2 4 9 10 7 8 7 7 10 7 9 8 6 11 14 15 10 7 10 13 15 14 16 18 16 16 16 15 17 17 15 12
27 26 27 26 25 26 26 26 28 26 17 7 3 4 6 4 4 6 4 8 12 9 13 15 14 14 14 17 15 9 9 10 11 12 10 11 8 8 8 7 8 7 9 13 11 9 10 8 9 10 7 11 13 13 15 11 5 2 5 10 8 8 8 7 9 8 9 4 3 11 12 7 3 2 7 12 12 11 13 16 14 11 14 17 17 14 14 15
26 26 26 25 26 25 25 28 25 15 6 5 10 9 5 3 4 6 4 6 9 5 7 10 10 9 11 11 8 12 11 8 7 8 6 14 9 7 9 8 8 8 10 16 15 10 7 6 11 12 8 12 14 15 16 10 6 5 4 7 8 10 8 3 7 9 7 2 2 10 9 5 4 4 6 9 8 6 9 13 12 9 11 12 12 12 13 15
26 26 26 25 25 24 27 26 14 6 10 13 12 5 1 3 4 4 3 4 6 4 4 5 4 6 8 6 6 10 8 6 9 8 5 11 10 8 7 6 7 10 11 13 12 8 4 5 12 15 10 13 14 14 16 12 6 5 6 7 6 10 8 4 10 11 6 7 7 10 8 4 4 6 7 9 9 9 8 11 13 12 12 10 11 14 13 13
26 27 27 26 24 26 25 14 5 10 16 12 5 1 2 5 2 1 1 4 5 2 2 1 2 4 5 5 6 7 3 3 10 13 11 11 9 6 6 6 5 8 10 9 6 4 4 4 10 17 13 13 13 12 16 14 7 4 5 7 6 6 8 9 14 12 6 6 7 9 9 3 3 7 9 10 11 13 11 11 13 13 12 12 13 14 12 12
28 27 28 27 25 25 17 9 11 14 10 5 1 0 3 4 0 2 1 3 4 1 1 1 2 3 3 6 9 6 1 0 3 9 13 12 8 4 6 8 6 6 7 7 5 4 7 7 9 16 15 12 12 9 14 16 9 3 3 7 8 5 6 8 11 10 4 2 4 7 7 3 4 6 8 11 12 14 15 13 14 13 13 16 16 13 12 12
31 29 28 28 26 23 18 17 17 12 8 6 3 2 2 1 2 1 1 3 2 1 1 1 2 2 2 6 11 7 3 3 2 2 9 12 8 4 6 9 7 8 10 10 7 5 10 11 9 14 14 11 9 7 12 16 9 4 3 7 8 5 4 4 7 6 2 4 7 7 6 6 5 3 5 11 12 13 16 17 17 17 18 18 17 15 13 13
32 31 30 29 28 24 18 14 13 12 8 4 3 2 1 2 1 1 1 2 0 1 1 0 1 3 2 5 9 9 5 3 3 2 5 8 9 5 3 7 8 9 12 12 9 5 8 11 8 11 12 9 8 7 12 16 10 4 5 5 4 4 2 1 3 3 3 5 9 10 11 8 5 3 5 10 11 12 13 15 17 18 20 19 18 18 15 13
33 33 32 30 27 20 11 9 14 15 10 6 3 1 1 2 1 1 2 1 1 0 1 0 2 2 4 5 5 8 6 4 3 0 4 5 8 6 2 5 7 8 10 11 10 4 3 8 7 7 8 7 10 8 11 17 12 5 7 6 4 4 2 1 0 1 3 6 5 10 13 9 6 4 6 8 9 12 12 12 15 17 18 18 17 18 16 13
36 36 34 29 23 15 7 7 10 9 11 12 7 1 2 0 1 2 2 1 1 1 0 2 2 2 5 6 4 4 5 6 4 3 5 4 6 6 2 5 6 6 8 8 9 6 2 6 7 5 7 9 11 9 9 16 15 7 7 7 5 4 2 2 2 1 6 6 3 7 11 9 9 5 6 9 11 13 14 13 15 17 18 17 16 15 15 14
38 38 33 24 16 10 9 5 2 1 8 9 5 3 0 1 2 4 2 1 2 1 0 2 3 3 5 7 5 3 4 4 4 5 7 7 7 6 6 7 7 7 8 8 9 7 4 5 5 6 10 12 13 10 8 12 14 9 8 8 7 6 5 5 5 4 5 3 2 6 10 8 8 4 5 11 13 14 15 14 15 17 18 16 14 14 14 13
40 34 24 13 6 7 11 6 3 4 10 11 6 1 1 2 3 4 2 1 2 2 1 2 4 5 5 4 3 4 2 2 4 5 6 9 7 7 7 6 6 4 5 10 10 7 4 3 6 9 10 13 14 12 9 11 14 13 10 10 8 6 6 7 6 3 4 2 2 3 7 5 4 3 6 13 15 15 15 13 11 9 11 13 13 13 14 14
36 23 13 9 5 2 6 9 7 6 10 10 4 0 2 4 5 4 3 3 3 2 2 3 5 4 5 3 1 3 2 1 5 6 6 9 8 6 7 6 5 2 4 10 8 6 7 5 8 11 8 12 16 12 8 7 11 10 5 6 6 3 3 5 4 4 5 4 3 3 5 4 5 3 4 8 8 10 11 7 3 4 7 10 11 12 14 15
24 11 9 11 11 8 1 11 12 9 8 5 1 2 2 4 3 3 4 3 2 3 4 4 3 1 4 2 0 2 4 1 4 5 5 8 8 7 7 8 7 5 6 9 5 5 7 2 7 10 5 12 17 10 6 8 9 7 2 5 6 2 2 2 1 2 4 4 4 3 3 2 2 1 1 0 2 5 7 6 6 7 9 11 12 13 14 15
17 9 10 14 15 12 3 8 12 11 7 2 1 3 3 3 3 2 2 3 3 5 7 5 1 1 1 2 2 3 6 3 2 3 5 7 9 8 7 7 7 7 7 8 4 5 7 2 8 12 8 12 16 10 9 10 7 5 5 7 5 2 3 3 2 2 2 5 4 3 3 2 2 1 1 1 3 6 8 10 11 10 12 13 13 13 14 15
15 9 9 14 18 14 5 7 12 11 6 1 2 4 3 3 3 2 2 4 5 4 5 3 0 1 1 2 4 4 6 6 3 3 5 7 7 9 9 6 7 9 8 7 3 4 6 4 9 16 12 11 14 13 12 9 4 5 8 6 4 3 2 1 3 2 4 7 3 3 6 5 5 4 2 3 6 7 9 12 12 12 13 14 13 13 15 17
13 7 4 13 18 13 5 8 13 8 3 1 4 6 3 2 3 3 3 5 4 2 2 2 1 0 1 2 5 6 6 5 4 4 6 7 5 8 11 7 8 11 11 7 2 2 5 4 6 14 13 10 12 12 11 9 4 5 6 5 3 4 2 1 2 3 6 5 2 3 4 3 5 5 2 6 9 9 10 12 12 14 15 14 13 15 16 16
8 3 1 11 16 10 4 10 9 3 1 2 5 5 2 4 5 4 5 6 4 2 2 2 2 1 2 1 4 7 5 4 5 4 5 5 3 8 12 8 8 12 11 7 3 1 3 2 4 10 10 9 11 10 11 10 4 2 5 6 2 1 2 2 1 2 4 4 3 4 3 4 5 4 5 10 11 11 12 12 13 16 17 14 13 15 16 17
5 1 1 10 14 5 8 7 3 1 2 3 5 4 3 6 8 7 7 6 4 3 1 2 2 1 2 2 2 4 3 5 6 4 4 6 5 7 11 10 8 9 9 8 5 2 1 0 4 8 7 8 10 9 11 12 8 5 8 8 5 2 1 2 1 1 2 3 3 4 4 4 4 3 7 11 10 11 14 13 13 14 15 14 14 16 17 17
4 1 1 8 9 4 6 0 2 1 3 4 4 4 5 7 8 10 8 4 3 3 2 2 2 1 2 3 1 2 2 4 6 4 3 7 6 5 9 11 8 7 7 6 6 3 1 1 4 7 7 8 8 5 6 9 9 8 6 5 6 6 3 4 4 1 1 0 2 2 3 3 3 2 4 6 7 9 12 12 10 11 14 15 14 16 17 17
2 1 1 7 7 3 2 2 1 1 3 4 5 6 8 8 8 9 7 2 2 2 2 2 3 2 2 1 1 1 2 3 5 6 4 7 8 7 10 12 9 8 8 4 4 4 2 1 4 6 5 4 4 5 8 9 7 6 5 4 5 5 5 7 5 2 1 1 1 1 2 2 2 1 2 4 5 7 9 8 7 10 13 15 15 16 16 16
2 3 3 7 7 2 3 2 2 3 3 5 7 8 8 6 5 8 8 4 2 2 1 2 2 2 1 1 1 1 4 3 4 5 3 6 8 8 11 14 10 9 8 3 2 4 3 1 3 6 4 3 3 5 9 8 7 7 6 6 7 6 4 5 3 2 3 2 2 2 2 1 1 2 1 3 4 7 8 8 10 11 12 14 16 16 15 15
3 3 4 7 8 1 1 3 4 5 6 7 9 8 5 4 4 7 10 8 6 3 1 2 1 2 2 2 2 2 4 3 2 3 2 3 4 6 10 14 11 7 5 2 3 4 2 2 3 7 7 5 5 7 9 9 9 9 6 6 8 7 4 2 2 1 2 2 1 2 3 1 2 3 1 2 5 8 9 9 11 12 13 14 14 14 15 15
3 1 2 5 7 3 1 2 2 5 8 10 10 9 6 3 4 6 9 8 7 5 3 2 1 2 3 2 3 4 4 3 2 2 2 1 1 3 8 14 13 6 3 5 4 2 1 1 2 6 8 8 8 8 8 9 10 8 7 8 9 9 9 5 2 3 4 2 1 4 4 1 1 2 1 3 6 8 10 11 11 12 14 15 13 13 14 14
2 1 3 4 3 2 1 1 2 4 7 9 8 6 7 8 7 7 7 5 6 8 4 2 1 1 2 3 2 3 2 3 4 2 0 1 0 2 7 12 12 7 8 10 6 2 1 1 1 4 7 8 7 4 5 7 10 10 10 11 9 8 8 5 3 4 4 3 3 6 3 4 4 1 3 5 7 9 11 13 13 12 14 15 14 14 12 11
2 1 4 4 2 2 2 1 3 6 7 8 5 4 7 10 10 7 5 3 6 9 4 3 4 5 4 6 4 2 2 1 2 3 4 2 1 2 6 10 10 10 13 11 5 1 2 3 3 5 7 5 3 7 10 11 10 9 10 11 8 5 5 5 4 3 5 4 6 5 2 4 7 2 6 7 7 8 10 12 13 13 14 15 15 14 13 13
3 0 2 3 3 3 4 5 8 10 11 9 4 4 8 11 11 8 5 4 7 7 4 3 6 8 6 7 5 4 4 4 2 5 7 4 1 6 7 6 7 7 8 7 3 1 4 5 3 4 5 5 4 8 15 15 10 11 13 12 8 7 7 7 5 2 5 6 5 3 2 6 5 1 4 7 7 8 10 11 12 13 15 16 17 16 15 16
3 1 2 3 3 5 6 9 12 12 12 9 5 5 9 11 11 8 4 5 6 6 4 5 9 10 8 7 5 3 3 4 3 4 7 6 2 5 7 4 4 3 3 5 4 1 3 4 3 4 4 5 5 8 15 16 13 14 16 15 11 9 9 9 6 3 3 4 3 3 4 7 4 1 2 6 8 8 8 10 12 15 16 17 18 18 15 15
3 2 4 4 5 6 7 8 10 9 8 7 6 6 8 10 11 10 5 4 4 5 6 6 10 13 9 6 5 2 1 2 3 4 6 7 4 3 4 2 2 0 1 4 4 2 3 3 2 3 3 5 4 8 14 16 15 15 15 14 12 11 10 9 6 3 2 5 2 2 6 5 1 0 2 6 9 10 9 11 14 15 16 18 18 18 16 16
4 4 6 5 5 6 6 6 7 7 6 5 6 8 9 9 11 11 6 5 5 6 8 9 12 11 6 4 5 4 3 5 5 7 7 5 2 2 1 0 1 1 1 2 2 2 4 2 1 3 4 4 3 7 12 13 12 11 10 11 11 10 8 6 4 4 6 6 2 1 5 3 2 2 4 7 10 12 12 13 13 14 16 18 17 16 16 17
6 5 4 4 4 4 6 7 7 5 5 5 7 9 9 10 12 12 5 3 5 7 7 9 11 9 5 4 5 7 8 8 8 8 6 4 5 5 4 3 3 3 2 2 2 2 2 2 2 3 4 3 3 6 11 11 9 6 5 9 12 10 7 5 3 4 6 5 3 3 5 2 1 3 7 8 10 12 14 14 12 13 15 16 16 15 15 16
Wind_Direction
349 348 347 346 347 346 344 345 344 343 342 341 340 339 338 337 336 335 334 333 334 333 332 332 332 334 335 335 332 327 328 326 320 312 286 277 281 288 301 306 309 305 297 286 270 272 285 259 223 183 173 164 189 177 169 186 165 176 196 218 225 207 195 172 171 176 165 185 196 191 188 196 204 186 164 138 98 109 90 60 39 12 17 359 100 130 145 153
348 348 347 346 346 344 344 345 343 343 342 340 338 336 335 334 334 333 333 331 331 331 332 331 330 332 333 335 334 330 330 323 313 289 281 291 289 290 315 321 312 299 280 256 237 228 244 249 183 171 174 178 177 170 179 175 187 198 184 216 224 197 177 169 172 173 169 187 184 186 195 195 200 184 170 190 161 142 121 82 316 52 65 97 129 139 149 158
347 348 347 346 345 343 343 343 342 342 341 341 338 335 333 332 332 331 330 329 329 329 330 329 330 332 332 335 334 332 331 320 304 282 299 6 74 28 344 329 320 294 256 240 226 208 220 241 171 177 180 194 181 172 187 176 191 204 198 223 221 150 161 174 174 180 188 185 182 187 189 195 199 167 174 199 180 172 178 166 184 203 180 158 153 153 156 164
347 347 346 345 344 342 341 340 339 340 340 339 337 335 332 330 329 327 327 327 327 327 327 328 329 330 332 332 329 335 333 311 299 170 78 57 54 26 358 346 347 319 246 228 219 203 211 230 209 185 180 195 187 179 191 186 181 181 210 226 168 134 174 182 179 186 194 196 198 167 143 187 193 175 184 171 179 202 212 202 201 203 182 170 167 165 165 169
346 345 345 343 341 339 337 336 334 335 335 334 332 332 330 328 326 324 324 322 323 325 326 327 326 328 332 328 328 340 338 300 60 130 90 21 6 8 356 351 4 359 255 207 193 188 201 212 201 181 184 188 177 188 197 191 177 182 214 218 101 159 190 177 181 193 189 186 194 153 152 172 157 174 183 175 205 225 208 217 216 196 172 171 172 170 171 175
341 342 342 339 339 336 335 333 331 331 330 328 327 327 326 324 322 320 319 318 319 319 322 325 325 328 327 325 328 339 326 286 115 159 181 346 335 340 347 344 356 11 325 194 185 193 187 181 191 185 185 186 188 192 184 184 189 214 215 168 139 177 187 175 181 188 176 182 187 177 176 138 141 169 186 193 218 260 277 247 227 187 167 169 170 172 177 182
339 340 339 339 339 337 337 334 332 330 327 325 324 323 321 319 318 316 315 314 314 314 318 320 322 326 324 328 331 331 242 265 254 218 258 306 313 326 337 332 335 8 43 184 216 221 192 183 194 184 180 188 197 194 180 183 199 227 217 166 179 181 185 180 168 166 167 194 186 143 155 145 170 178 164 200 240 282 285 275 216 167 161 166 171 178 185 188
338 338 337 337 336 335 334 331 330 328 325 323 322 321 317 316 313 311 311 310 310 311 312 313 317 323 325 332 333 307 255 258 261 262 277 291 310 333 336 328 328 356 16 9 324 247 209 193 188 174 195 197 189 187 179 182 204 222 213 163 168 182 197 207 174 139 165 202 143 109 168 165 189 172 160 194 254 278 287 236 169 156 159 172 179 184 189 192
336 335 335 334 333 332 331 330 329 326 325 323 321 320 317 315 312 309 308 306 307 306 306 309 310 314 318 324 328 297 264 245 261 277 279 307 331 333 329 323 327 350 356 349 349 291 214 196 187 175 213 205 182 184 181 190 209 211 198 178 176 182 195 211 226 207 175 190 176 186 204 215 201 155 186 203 249 266 247 165 160 161 172 181 186 188 191 194
334 334 333 332 332 331 331 330 329 326 324 323 322 320 317 314 311 307 305 303 302 300 300 302 302 307 305 292 268 276 268 210 220 247 262 314 323 320 314 307 313 339 336 328 339 311 252 216 204 222 260 203 186 187 186 195 195 177 188 197 202 205 199 203 224 221 213 196 199 195 213 226 180 186 217 185 200 200 162 166 169 175 182 185 190 193 194 196
333 333 333 333 332 331 330 329 327 325 323 323 321 317 315 313 308 304 302 302 301 296 293 293 295 297 288 260 238 252 236 223 254 277 290 304 312 310 304 295 295 307 311 310 305 292 280 287 333 286 230 180 179 187 203 206 168 155 182 197 206 217 226 208 200 208 210 206 198 201 235 236 149 199 216 160 178 186 170 174 182 190 189 189 193 193 197 200
333 333 334 333 332 329 328 327 326 324 322 321 318 315 313 310 306 303 302 303 300 293 288 286 285 283 276 257 244 243 242 259 278 291 296 301 303 300 297 284 274 267 261 280 287 291 273 289 322 241 239 187 170 168 222 212 202 171 164 190 199 210 227 219 207 190 195 208 182 178 239 241 196 197 191 166 175 180 181 181 186 197 194 191 195 195 201 202
334 334 333 331 330 328 328 327 326 324 322 320 316 314 311 308 306 303 301 299 295 289 284 281 279 274 265 256 250 250 256 268 281 290 294 298 296 293 293 275 259 254 245 245 261 273 269 310 307 242 322 288 172 110 290 195 191 195 174 197 186 196 222 216 210 198 193 203 161 173 230 233 197 185 172 170 174 173 185 190 191 200 197 196 197 198 204 203
335 333 332 330 328 328 327 327 326 325 321 319 317 314 311 308 305 302 301 295 288 284 279 277 275 266 253 257 263 265 270 273 274 279 284 287 288 293 299 278 251 245 238 234 245 260 260 280 297 249 287 253 278 338 317 161 185 179 168 204 199 196 205 197 199 191 191 200 166 190 232 229 177 171 178 176 174 175 186 195 198 201 200 200 199 203 207 206
335 333 332 330 328 327 327 327 326 323 320 319 315 312 309 307 304 303 301 291 283 277 269 268 256 245 264 265 270 277 278 269 263 263 264 277 280 286 308 299 245 231 224 226 233 249 234 215 200 213 214 223 271 308 159 149 186 174 172 198 200 205 170 171 194 191 192 194 182 198 229 234 184 168 180 183 180 180 188 194 198 202 203 204 202 205 209 210
334 333 331 329 328 327 327 326 324 321 320 318 313 310 308 307 307 304 297 286 280 265 245 248 225 214 262 278 281 281 260 237 250 256 258 278 273 266 293 303 261 208 200 215 215 195 174 173 173 191 187 195 205 205 160 154 187 191 200 197 184 196 188 160 187 195 194 182 193 209 222 233 200 174 175 184 187 187 192 194 197 203 205 206 205 205 209 209
334 332 330 328 328 326 326 325 323 322 321 318 313 310 308 308 306 298 293 284 282 232 203 203 182 194 241 277 289 282 257 241 248 264 275 289 282 267 270 275 260 195 170 176 187 184 176 171 168 177 199 206 185 179 182 189 194 192 203 197 168 184 185 171 160 192 197 190 196 210 220 225 182 164 178 182 189 194 198 198 199 203 205 207 207 206 208 209
334 332 330 328 327 326 326 324 323 324 322 319 314 312 309 307 300 282 255 148 105 128 164 151 134 191 242 239 258 269 283 275 272 286 292 303 294 261 243 239 257 183 154 146 168 170 172 180 178 176 191 196 189 191 194 198 188 173 183 180 152 172 184 192 175 169 192 197 199 195 210 223 194 140 184 185 188 195 203 206 204 205 207 208 209 210 210 214
334 332 330 328 328 327 325 323 323 323 322 320 318 317 312 303 292 221 159 140 119 131 199 188 162 208 265 218 238 262 278 286 295 294 288 306 320 241 226 230 246 188 164 167 173 171 171 174 182 190 197 193 193 197 192 28 147 159 171 178 166 171 188 198 188 167 182 193 203 193 199 216 203 159 184 190 191 199 206 210 211 210 211 211 213 214 213 218
333 331 328 327 328 326 323 322 324 324 322 322 324 326 325 334 326 216 190 231 232 237 253 231 197 220 260 259 241 269 292 282 279 277 262 250 17 333 228 206 211 204 190 174 161 167 176 185 199 201 197 185 180 191 198 4 116 160 168 181 180 180 187 195 190 177 182 189 202 196 194 211 208 177 183 188 192 204 209 210 215 214 212 211 213 216 215 220
331 329 327 327 327 324 321 321 324 324 321 320 324 333 354 335 317 313 312 263 237 234 246 238 219 226 242 252 254 313 323 285 258 253 249 249 304 321 233 185 181 194 191 163 142 150 184 207 210 192 170 170 169 188 207 284 112 163 176 180 185 191 189 193 191 177 182 194 197 188 196 210 206 186 184 185 190 203 209 210 215 214 212 212 213 217 218 220
328 327 326 326 324 322 320 320 322 322 317 314 321 349 275 272 265 294 314 286 262 233 234 240 237 240 243 251 259 267 287 271 265 259 248 239 234 221 188 179 191 186 165 161 149 158 198 218 194 166 154 168 168 183 206 227 209 166 183 180 185 188 175 188 196 176 177 202 191 179 201 209 197 184 184 185 193 203 207 211 216 213 212 214 213 217 219 216
327 325 324 324 323 321 320 321 322 319 316 311 301 290 282 265 261 285 284 289 289 238 222 236 236 244 248 252 251 225 233 249 261 267 226 187 192 195 186 186 191 174 164 180 181 179 202 208 167 164 166 168 170 181 201 219 224 224 190 184 183 172 174 192 195 180 176 204 178 176 201 211 165 168 195 195 200 203 208 215 221 219 217 218 216 218 218 216
325 325 324 323 321 321 321 321 320 320 335 323 299 291 278 271 287 292 279 278 287 256 221 227 223 236 243 247 222 200 222 224 235 276 198 170 180 186 189 188 177 179 187 191 191 186 192 171 159 169 175 174 173 179 195 207 213 226 221 199 178 169 191 199 161 162 166 207 166 164 193 227 188 185 197 199 202 206 210 211 217 224 222 220 218 220 219 219
326 325 322 322 321 321 322 319 318 337 337 315 297 288 276 304 298 284 290 286 282 264 222 214 206 226 228 222 177 185 218 226 224 253 210 183 185 170 179 190 185 194 192 188 192 191 174 152 166 174 178 180 177 181 193 197 199 216 224 222 193 177 193 153 144 154 169 205 185 165 191 216 186 197 200 189 195 209 209 203 209 217 216 213 217 220 218 218
327 323 320 322 321 322 323 319 312 325 321 308 282 232 301 319 320 208 265 286 278 258 184 189 188 208 202 172 163 175 196 230 221 223 221 215 202 180 179 182 200 203 181 174 195 196 172 158 173 180 179 180 184 186 190 191 193 206 203 206 210 195 185 157 158 169 185 196 177 187 210 202 174 212 205 188 196 208 207 205 208 211 213 216 222 221 216 216
325 323 321 322 321 322 321 306 306 311 301 277 227 269 306 326 10 175 260 277 273 256 156 210 182 203 211 167 164 174 182 330 204 202 212 218 210 209 202 181 186 190 160 164 198 192 176 172 178 185 180 183 192 188 184 187 191 195 148 172 191 197 179 163 169 182 184 132 152 197 216 234 213 205 191 188 200 209 210 213 213 212 215 219 223 220 213 214
324 323 321 320 318 315 306 295 296 287 260 253 246 267 318 13 130 149 293 284 272 99 150 212 189 215 217 160 172 195 328 1 13 159 193 210 209 206 206 190 179 170 166 183 192 163 175 182 179 183 185 191 191 172 174 182 195 212 155 162 183 186 166 159 178 185 136 169 194 186 185 221 218 161 164 184 198 211 211 214 216 217 219 220 223 221 217 214
324 322 320 318 315 310 302 286 266 251 251 230 196 261 335 122 140 124 218 272 242 120 57 65 252 242 171 149 192 229 306 353 339 41 152 198 218 231 219 189 177 167 176 196 195 149 179 193 177 179 194 190 171 161 171 182 200 199 149 144 156 166 160 144 186 166 133 204 207 177 179 211 212 150 165 181 197 210 208 213 218 218 220 221 221 221 219 213
323 321 320 319 313 310 304 266 252 254 246 219 223 293 94 138 193 230 223 254 281 178 61 304 270 222 167 165 205 230 251 272 298 345 142 181 212 239 272 169 176 175 177 196 201 179 171 186 174 181 199 178 165 169 174 186 197 158 143 158 136 141 173 161 116 112 180 215 203 173 184 209 218 186 176 185 197 197 194 207 214 215 218 219 218 218 216 208
324 321 321 317 308 298 281 265 271 261 230 229 242 151 119 152 179 226 231 250 267 189 75 255 220 157 186 207 218 204 216 250 267 192 173 174 186 205 197 165 176 178 170 182 198 205 178 173 173 176 187 177 174 177 175 190 201 183 170 185 158 141 154 146 135 202 214 211 171 166 177 200 222 205 179 197 202 195 194 199 204 208 211 211 209 210 211 206
325 322 321 316 299 264 233 239 341 162 184 190 178 128 92 313 236 233 234 339 289 217 194 241 201 192 206 216 225 194 184 221 224 183 174 179 179 187 193 180 171 172 173 172 184 204 208 177 173 170 182 188 183 178 175 189 203 205 190 187 177 165 164 175 181 194 210 200 72 161 168 191 228 231 191 202 205 202 202 202 202 205 205 200 195 197 204 204
327 326 328 325 296 235 222 207 100 124 150 143 133 133 232 281 265 241 220 303 266 207 204 245 245 230 197 196 213 202 208 212 192 177 173 185 184 186 201 191 174 181 176 170 174 187 184 168 187 183 182 194 192 181 178 187 197 202 195 189 186 172 169 180 178 174 189 160 57 157 174 195 224 218 200 202 208 208 206 209 207 197 193 186 180 187 196 199
331 336 355 10 12 314 223 192 160 152 146 137 127 267 230 260 271 261 257 249 239 257 251 249 271 243 183 190 179 173 208 194 175 172 168 184 186 188 203 197 192 206 145 165 176 180 176 168 188 193 179 185 197 197 180 175 191 200 199 191 197 196 180 175 167 168 163 137 99 144 184 192 172 167 195 200 211 212 208 211 182 140 167 171 171 183 193 195
340 358 27 28 27 18 247 188 184 180 155 132 168 253 254 266 273 290 296 269 256 296 286 268 283 220 174 203 14 201 222 203 170 176 172 187 188 184 193 190 202 208 154 163 172 176 191 180 170 191 194 181 193 202 167 160 187 197 174 189 205 217 154 116 112 137 118 125 145 165 203 222 180 77 15 189 216 207 204 197 173 164 162 163 173 186 192 194
350 22 29 21 15 10 8 183 182 184 176 139 270 249 253 253 256 290 306 292 292 305 308 308 313 129 176 166 136 217 215 181 147 173 178 190 188 186 196 194 198 210 184 170 160 171 193 174 156 181 212 199 191 189 183 184 181 171 183 193 185 90 96 114 105 57 100 168 172 172 206 226 217 209 63 117 166 176 187 187 184 177 166 171 183 186 190 192
346 2 16 11 5 7 20 168 167 171 178 158 257 265 269 247 245 240 272 292 291 292 306 320 41 145 186 156 162 185 186 164 150 174 175 185 190 186 197 205 191 206 220 200 181 192 186 152 164 181 195 202 190 185 199 207 170 164 190 182 124 74 18 118 149 130 167 185 167 175 204 199 185 185 99 133 166 172 186 186 180 175 173 182 187 185 188 190
332 322 344 5 2 4 28 154 158 160 171 209 260 269 274 247 231 209 255 284 279 271 290 311 341 278 182 155 160 170 177 161 154 180 173 174 193 180 186 206 194 203 226 219 197 240 197 144 166 186 185 181 183 188 200 211 221 207 186 153 148 189 197 156 161 165 173 180 156 171 210 227 201 194 164 180 186 182 185 182 176 178 184 187 185 184 187 186
332 301 335 8 1 4 89 141 154 174 234 270 283 283 282 275 273 264 275 283 261 239 302 326 351 322 244 227 146 156 176 164 159 192 185 168 180 179 183 198 199 203 214 208 192 253 215 146 162 193 187 164 174 194 198 193 207 231 174 166 207 246 176 166 150 163 176 177 168 168 192 229 215 202 190 196 197 184 176 178 185 190 189 184 178 180 184 183
349 329 36 8 3 36 123 142 173 273 287 281 287 287 291 289 293 297 292 285 260 214 246 318 346 1 267 256 159 148 185 181 169 196 192 164 159 179 193 201 199 198 192 194 215 246 241 212 160 177 176 166 183 203 201 186 175 183 185 179 179 167 179 196 146 98 193 177 175 183 200 213 204 200 203 203 198 184 178 183 193 194 186 179 177 178 181 183
341 347 78 5 9 110 137 231 270 312 311 289 283 282 293 300 299 304 306 290 260 232 215 241 259 265 236 235 165 130 183 184 181 207 193 166 164 182 207 211 197 174 162 181 221 219 183 208 155 163 176 185 186 177 180 180 171 180 191 178 175 175 179 192 180 155 327 163 161 184 228 218 181 185 221 213 198 189 187 188 188 184 179 179 181 180 181 183
331 10 330 353 0 180 201 318 257 297 304 287 302 287 284 297 296 301 313 311 247 259 232 229 248 254 220 208 38 140 200 195 197 217 205 179 185 188 201 207 191 165 164 181 217 198 174 173 155 154 167 175 148 140 168 171 155 174 196 176 173 183 191 199 192 159 155 147 114 149 270 243 138 60 280 236 213 196 189 179 166 171 179 180 180 181 181 182
353 331 301 348 2 234 232 331 305 325 310 282 301 283 262 275 291 305 320 329 321 318 274 253 262 268 206 195 281 207 200 201 202 216 208 182 193 196 190 191 182 170 176 193 211 183 180 201 142 125 126 121 102 138 169 167 157 182 200 182 181 189 192 204 200 145 174 178 144 177 237 220 85 27 310 238 215 186 175 169 161 165 177 179 178 178 178 177
318 293 279 343 358 311 252 348 331 330 328 315 316 302 263 241 266 308 323 326 331 338 288 293 273 263 280 246 249 247 218 212 205 214 211 173 189 195 182 180 183 184 178 187 193 173 192 241 146 137 149 151 132 149 171 186 191 195 186 177 186 170 136 173 190 143 211 218 168 234 238 202 42 13 20 165 172 169 167 168 163 161 170 175 174 174 174 171
311 267 246 319 343 352 16 359 328 320 327 329 326 318 312 291 280 316 324 316 326 342 317 300 288 252 286 287 251 255 247 230 241 253 220 189 158 156 165 175 185 188 185 214 217 172 193 254 150 154 170 170 170 174 177 181 189 193 168 168 186 173 157 167 161 180 215 205 179 235 246 276 28 41 87 149 155 161 166 169 165 162 167 169 167 170 171 168
346 9 314 315 341 9 1 251 317 324 324 330 327 319 332 332 322 331 336 321 331 344 329 258 298 325 295 324 300 253 250 208 224 270 22 168 18 126 162 172 180 198 217 223 224 146 139 257 222 201 200 184 168 139 115 145 172 184 172 167 181 185 169 156 150 196 195 138 207 234 252 304 293 174 170 189 171 164 167 167 166 165 165 165 165 167 166 166
28 20 344 340 322 333 340 325 347 336 317 319 320 308 329 333 330 339 352 340 329 334 317 251 352 20 2 345 345 297 329 109 200 319 359 348 338 133 154 157 170 206 223 227 235 208 251 270 234 222 232 218 149 115 132 155 166 167 169 172 174 176 175 177 187 183 142 155 236 244 155 251 271 219 182 198 184 172 171 168 167 166 163 164 163 158 157 162
28 2 342 349 306 311 331 321 324 323 314 313 306 300 325 336 341 344 338 319 320 331 329 306 346 4 358 345 337 308 345 46 62 3 4 352 86 122 127 146 178 217 234 242 253 226 260 269 218 206 228 214 187 153 154 161 162 159 175 186 176 165 180 194 203 171 154 192 253 313 170 226 268 321 181 187 177 176 175 168 165 162 161 164 162 157 156 161
21 328 326 347 305 294 294 297 310 318 316 319 323 326 334 337 338 336 317 308 319 329 342 334 331 339 348 350 341 331 10 33 24 17 14 353 358 116 118 153 207 230 263 267 264 184 250 264 193 184 198 175 189 184 161 158 161 167 181 191 182 172 180 195 209 192 192 246 300 345 274 254 269 313 172 161 160 166 167 163 162 161 162 165 166 164 160 160
22 324 322 326 299 292 289 299 316 318 314 328 340 341 339 332 332 333 314 290 298 309 328 333 323 327 342 1 359 4 60 355 338 345 353 350 357 77 95 138 217 156 219 266 266 176 212 244 143 162 182 140 161 191 172 162 162 168 181 188 180 175 179 195 211 185 225 269 291 339 294 281 289 41 128 145 152 154 162 166 163 164 166 166 170 171 164 162
352 296 303 309 303 308 312 322 329 319 323 350 350 338 335 327 328 330 306 243 232 271 310 322 319 320 335 355 353 357 342 318 307 307 313 317 318 332 4 91 351 5 332 275 262 181 203 227 131 167 179 124 125 182 168 151 148 160 181 183 174 177 181 192 201 182 207 223 191 308 286 294 55 103 137 155 160 156 164 169 165 167 170 169 173 175 172 170
341 297 296 301 292 306 326 332 333 331 340 348 337 329 323 315 323 330 320 254 247 261 288 312 313 317 331 328 332 348 339 314 296 298 296 267 262 275 268 255 271 282 275 278 274 220 197 205 194 187 172 105 100 162 151 134 135 158 195 185 173 173 169 166 196 212 211 203 176 227 260 336 47 163 153 161 171 166 167 172 169 167 169 172 175 176 177 178